Wetbulb
74.57 76.01 79.22 79.36 78.80 78.54 78.39 78.93 79.05 79.27 79.42 79.35 79.09 79.16 79.13 79.10 78.53 78.22 78.15 77.65 77.30 77.32 77.47 76.83 75.94 76.24 76.57 76.78 76.47 76.04 76.58 76.51 76.19 76.59 76.35 75.91 75.80 75.46 75.55 74.78 73.56 72.47 74.74
76.00 76.86 79.10 79.52 79.36 78.80 78.49 78.74 79.09 79.22 78.94 79.01 78.99 78.90 78.92 78.69 77.84 77.73 77.81 77.44 77.31 76.93 76.86 76.81 76.53 75.97 76.64 76.77 76.68 76.54 76.98 76.80 76.84 76.04 75.49 76.25 76.02 75.38 75.02 74.32 73.66 73.42 73.21
76.12 77.44 78.01 79.30 79.44 79.19 79.03 78.86 78.83 78.85 78.40 78.30 78.65 78.79 78.64 78.53 77.77 77.62 77.49 77.18 76.94 77.00 76.97 76.86 76.70 76.43 76.57 76.79 76.74 76.32 76.59 77.11 77.21 76.70 75.91 74.79 74.53 75.53 74.88 74.90 74.65 74.76 73.95
76.73 77.41 77.46 79.08 79.45 79.49 79.30 79.25 79.01 78.69 78.18 78.24 78.10 78.19 78.06 78.55 78.55 77.86 77.57 77.21 77.16 77.23 77.14 76.75 77.05 76.81 76.47 76.78 77.07 76.78 76.59 76.69 76.23 76.30 74.45 74.35 73.93 75.55 75.14 74.90 74.63 74.25 74.35
76.32 77.30 77.59 79.61 79.75 79.02 79.22 79.17 79.12 78.87 78.71 78.32 78.36 78.02 78.46 78.31 78.19 77.74 77.61 77.63 77.46 77.46 77.25 76.67 76.49 76.73 76.39 76.64 76.92 76.69 77.04 76.92 76.50 74.95 73.93 74.06 75.03 74.88 75.56 75.09 74.70 74.10 73.57
76.48 76.78 77.99 79.88 79.66 79.04 79.08 79.20 79.12 79.19 78.99 78.59 78.21 78.07 78.23 78.03 77.78 77.57 77.41 77.27 76.69 77.08 76.74 76.63 76.49 76.49 76.20 76.57 76.83 77.03 77.32 76.49 76.10 74.08 73.83 74.99 75.05 75.73 75.60 75.18 75.19 74.56 74.18
75.87 76.14 77.47 79.27 80.05 79.77 79.44 78.67 78.70 79.01 78.86 78.51 77.92 77.65 77.81 77.94 77.73 77.74 77.35 77.03 76.99 76.73 76.50 76.34 76.41 76.11 76.20 76.61 76.70 76.88 77.00 76.07 73.85 73.88 74.23 74.68 74.93 75.86 75.69 75.55 74.89 74.75 73.41
75.49 76.27 77.10 79.55 80.11 80.22 79.10 78.49 78.14 78.41 78.18 78.14 77.72 77.60 77.70 78.19 77.84 77.56 76.95 77.01 76.86 76.92 76.58 76.36 76.69 76.36 76.38 76.12 76.70 76.72 77.10 75.95 74.49 73.63 74.03 74.32 75.13 75.80 75.86 75.42 74.29 74.86 74.44
75.82 76.54 76.91 77.36 78.54 79.66 79.53 79.33 78.70 78.80 78.47 78.46 78.19 78.31 77.89 77.62 77.54 76.67 77.47 76.88 77.20 76.79 76.62 76.26 76.28 76.82 76.41 76.29 76.22 76.58 76.05 75.82 74.18 73.93 73.88 74.59 76.05 76.41 75.81 75.50 74.38 74.92 74.89
75.18 75.22 75.86 76.62 76.74 77.56 78.40 79.34 78.85 78.81 78.05 77.82 77.76 77.66 77.66 77.70 77.19 76.66 77.85 77.85 76.96 76.63 76.84 76.61 76.42 76.59 76.65 76.86 76.32 76.21 75.39 75.51 73.64 73.93 74.06 74.77 76.56 75.95 76.22 76.02 75.07 74.84 74.81
73.93 74.49 74.34 75.15 75.00 75.79 76.02 77.79 78.59 78.62 77.95 77.73 77.52 77.77 77.21 75.80 75.68 76.47 76.93 76.93 76.68 76.64 76.42 76.42 76.42 76.66 76.92 76.57 76.61 76.20 75.73 74.06 73.48 73.97 73.83 74.65 76.43 76.32 76.20 76.10 75.84 74.59 74.88
72.27 74.18 74.98 74.68 74.74 75.16 76.68 76.58 76.19 75.86 75.84 75.70 75.96 75.98 76.06 75.37 74.62 75.83 76.73 76.66 76.62 76.51 76.73 76.39 76.37 76.29 76.11 74.97 75.44 76.24 74.69 74.03 72.71 72.82 74.39 75.20 76.38 76.71 76.36 76.74 76.29 74.80 74.14
72.44 73.44 74.11 74.57 74.57 74.77 75.57 75.27 75.50 74.80 75.09 75.00 75.25 75.16 75.30 74.53 74.71 75.92 75.37 75.53 75.31 76.15 74.95 76.55 76.53 75.49 74.52 74.09 73.98 73.79 74.11 73.94 72.91 73.13 74.03 75.35 76.27 76.90 76.41 76.54 76.27 75.83 74.73
71.92 73.05 73.82 73.74 73.11 74.03 74.15 73.49 73.82 72.56 72.65 72.88 72.27 72.71 73.38 73.01 73.16 74.25 73.89 73.87 73.70 74.42 73.78 74.55 74.89 74.79 74.24 74.25 73.70 73.45 73.58 73.18 72.87 73.90 74.75 75.78 75.84 76.68 77.18 76.52 76.13 75.52 75.41
71.55 72.51 73.21 73.51 73.10 73.28 72.94 72.70 72.49 72.00 72.18 71.45 71.63 71.81 72.51 72.33 72.44 72.73 73.02 72.99 72.81 73.19 73.32 73.21 73.37 73.76 73.67 73.40 73.89 73.23 73.11 72.95 72.64 73.27 73.98 76.21 76.17 76.09 77.09 76.34 76.30 75.77 75.22
71.95 72.24 73.04 73.55 72.62 72.33 72.22 71.92 71.97 71.70 71.78 71.47 71.22 71.56 72.19 71.63 71.90 71.83 71.43 71.38 71.82 72.73 72.85 72.78 72.78 72.47 72.61 72.95 72.92 73.31 72.99 73.13 72.72 72.69 73.11 73.74 75.45 75.97 75.96 76.80 76.40 76.11 75.71
72.05 72.70 72.83 72.99 72.77 72.26 71.70 71.33 70.88 71.03 71.55 71.20 70.98 71.17 70.94 71.07 70.50 70.00 70.86 70.83 71.42 71.87 72.03 72.12 72.04 71.84 71.75 71.66 71.89 72.51 72.72 72.69 72.96 72.82 72.86 73.06 74.07 75.52 76.29 76.55 76.47 76.48 76.46
71.26 71.59 72.79 73.77 72.65 71.69 70.59 69.98 69.27 68.43 68.42 69.71 70.72 71.05 71.51 70.65 70.14 70.02 70.05 70.12 71.11 71.26 71.15 70.72 71.26 70.61 70.64 70.85 70.79 71.70 72.89 72.56 72.57 72.37 72.80 72.61 73.06 73.27 74.92 75.51 75.87 75.75 76.28
70.91 71.29 71.52 72.14 71.42 70.67 70.00 68.88 68.02 67.25 66.38 67.48 69.35 70.25 69.90 70.77 70.31 69.34 69.23 69.66 70.44 70.28 70.23 70.31 69.63 70.19 69.68 70.15 70.24 70.64 71.57 71.88 72.04 72.68 72.50 72.71 72.71 72.86 73.01 74.25 74.92 74.72 75.79
69.35 68.76 68.24 68.33 68.22 70.43 69.73 69.08 69.03 68.97 68.47 68.54 69.28 70.21 70.15 69.14 69.95 69.93 70.02 69.59 70.25 70.04 69.42 69.33 69.25 69.23 69.81 69.55 69.83 70.63 70.58 71.50 70.88 72.08 72.31 72.36 72.68 72.79 72.75 73.14 74.15 74.25 75.27
68.13 67.88 68.19 67.91 66.04 65.86 69.60 68.58 69.03 68.69 68.92 68.83 69.60 69.96 69.95 69.97 69.79 69.75 69.06 69.19 69.64 69.62 69.32 69.01 69.10 68.92 68.60 69.05 68.33 66.59 68.24 69.77 71.09 71.54 72.59 72.16 72.38 72.41 72.65 73.19 73.26 74.06 73.76
66.53 66.44 66.40 68.17 66.54 65.97 68.29 69.37 69.01 68.24 67.84 67.66 67.63 67.70 68.42 69.26 69.84 70.13 69.10 68.51 68.22 68.88 68.33 68.65 68.47 67.45 67.59 68.69 66.31 65.50 65.09 67.33 69.25 70.54 71.42 71.72 72.25 72.99 72.26 72.55 73.01 73.51 74.16
64.63 63.96 65.36 66.56 65.87 66.31 68.22 69.24 67.88 67.77 67.14 65.65 65.90 66.55 67.25 68.08 68.54 68.72 69.17 68.58 67.97 68.74 67.86 68.20 68.62 68.04 66.76 67.50 67.46 65.50 62.53 62.51 64.79 68.35 69.55 70.74 71.43 71.68 71.96 72.89 73.06 73.28 73.55
65.60 65.37 66.62 65.74 65.31 65.91 68.87 68.31 67.01 66.15 64.84 65.45 65.40 65.85 66.38 67.30 67.38 68.64 68.42 68.49 68.04 67.81 68.24 68.08 68.85 68.58 67.79 66.67 67.25 67.43 66.63 65.67 63.88 64.40 67.12 69.40 71.06 70.75 71.33 72.34 72.76 72.89 73.10
65.61 65.11 63.68 64.50 65.27 66.20 69.27 67.75 66.36 65.27 64.91 65.02 64.93 64.91 65.18 66.15 66.58 67.05 68.24 67.86 67.59 67.70 68.56 68.54 68.31 68.20 68.18 67.28 67.03 66.75 66.87 66.83 65.92 64.17 62.90 65.38 68.55 70.42 71.13 71.16 71.86 72.70 73.01
66.11 66.25 66.39 65.74 66.96 68.63 68.44 66.90 65.47 64.74 63.31 63.90 64.38 64.51 65.17 65.49 66.21 66.47 67.36 67.68 68.04 67.84 67.91 68.31 69.03 68.42 68.04 67.86 67.39 67.59 66.87 66.38 65.95 65.37 64.01 64.05 64.63 66.75 68.41 71.00 70.93 71.24 72.35
MSLP
1012.40 1012.41 1012.66 1012.84 1013.02 1013.12 1013.27 1013.32 1013.56 1013.82 1014.09 1014.46 1014.63 1014.96 1015.14 1015.40 1015.87 1016.15 1016.38 1016.44 1016.71 1016.84 1016.94 1017.13 1017.20 1017.18 1017.16 1017.40 1017.68 1017.97 1018.21 1018.33 1018.50 1018.62 1018.87 1019.01 1019.17 1019.29 1019.36 1019.56 1019.78 1019.99 1020.11
1011.73 1012.23 1012.66 1012.94 1013.18 1013.37 1013.62 1013.77 1013.93 1014.15 1014.36 1014.57 1014.87 1015.12 1015.41 1015.75 1016.03 1016.38 1016.55 1016.68 1016.79 1017.00 1017.14 1017.22 1017.28 1017.34 1017.38 1017.55 1017.78 1018.08 1018.35 1018.58 1018.68 1018.80 1018.97 1019.17 1019.34 1019.48 1019.69 1019.82 1019.86 1020.22 1020.41
1012.07 1012.34 1012.75 1013.06 1013.36 1013.71 1013.97 1014.16 1014.36 1014.52 1014.74 1015.04 1015.26 1015.53 1015.73 1016.07 1016.20 1016.54 1016.62 1016.84 1017.00 1017.06 1017.20 1017.34 1017.41 1017.54 1017.65 1017.71 1017.93 1018.17 1018.52 1018.72 1018.87 1018.95 1019.23 1019.50 1019.58 1019.74 1019.93 1020.02 1020.24 1020.46 1020.64
1011.96 1012.48 1012.83 1013.31 1013.62 1013.95 1014.22 1014.49 1014.61 1014.80 1015.06 1015.37 1015.55 1015.86 1016.15 1016.20 1016.42 1016.62 1016.76 1016.90 1017.02 1017.16 1017.32 1017.50 1017.59 1017.70 1017.83 1017.94 1018.09 1018.37 1018.65 1018.90 1019.09 1019.32 1019.70 1019.77 1019.72 1019.89 1020.12 1020.33 1020.46 1020.71 1020.91
1012.56 1012.92 1013.10 1013.50 1013.88 1014.20 1014.54 1014.76 1014.98 1015.27 1015.43 1015.72 1015.93 1016.12 1016.25 1016.48 1016.62 1016.80 1016.82 1016.98 1017.14 1017.20 1017.30 1017.65 1017.81 1017.85 1018.04 1018.21 1018.28 1018.52 1018.77 1019.07 1019.29 1019.63 1019.83 1020.00 1019.97 1020.04 1020.30 1020.58 1020.80 1020.96 1021.14
1012.84 1013.08 1013.44 1013.76 1014.07 1014.33 1014.72 1015.15 1015.42 1015.61 1015.73 1015.87 1016.19 1016.47 1016.62 1016.72 1016.86 1016.95 1017.05 1017.21 1017.26 1017.43 1017.51 1017.77 1017.98 1018.12 1018.24 1018.40 1018.57 1018.73 1018.97 1019.17 1019.58 1019.85 1019.95 1019.98 1020.09 1020.14 1020.41 1020.70 1020.91 1021.15 1021.38
1012.87 1013.12 1013.42 1013.74 1014.10 1014.44 1014.80 1015.21 1015.53 1015.62 1015.81 1015.91 1016.17 1016.42 1016.70 1016.81 1016.94 1017.07 1017.23 1017.29 1017.35 1017.64 1017.75 1017.74 1018.06 1018.27 1018.35 1018.54 1018.81 1018.89 1019.09 1019.27 1019.80 1020.03 1020.06 1020.18 1020.28 1020.26 1020.46 1020.76 1021.04 1021.30 1021.56
1012.53 1012.96 1013.26 1013.50 1014.01 1014.31 1014.69 1015.26 1015.56 1015.78 1015.92 1016.06 1016.24 1016.47 1016.66 1016.87 1017.03 1017.11 1017.22 1017.32 1017.36 1017.66 1017.68 1017.84 1018.10 1018.20 1018.55 1018.57 1018.70 1019.16 1019.09 1019.37 1019.68 1019.96 1020.19 1020.24 1020.34 1020.37 1020.51 1020.87 1021.17 1021.38 1021.62
1012.62 1013.04 1013.53 1013.69 1013.98 1014.33 1014.79 1015.25 1015.63 1015.76 1015.99 1016.12 1016.31 1016.54 1016.75 1016.93 1017.01 1017.18 1017.28 1017.40 1017.50 1017.56 1017.65 1017.80 1018.03 1018.06 1018.42 1018.71 1018.80 1019.13 1019.32 1019.34 1019.71 1019.77 1020.10 1020.28 1020.30 1020.34 1020.50 1020.82 1021.15 1021.35 1021.63
1012.93 1013.17 1013.34 1013.70 1013.98 1014.42 1014.78 1015.19 1015.59 1015.83 1016.11 1016.31 1016.42 1016.57 1016.72 1016.78 1016.85 1017.04 1017.28 1017.55 1017.63 1017.63 1017.63 1017.80 1017.84 1018.22 1018.42 1018.62 1018.89 1019.15 1019.34 1019.45 1019.73 1019.75 1020.04 1020.28 1020.30 1020.40 1020.53 1020.84 1021.14 1021.36 1021.67
1013.17 1013.38 1013.55 1013.82 1014.13 1014.44 1014.62 1015.02 1015.22 1015.63 1015.86 1016.13 1016.31 1016.51 1016.71 1016.84 1016.89 1017.06 1017.30 1017.49 1017.59 1017.60 1017.62 1017.80 1017.89 1018.01 1018.31 1018.51 1018.73 1019.07 1019.21 1019.60 1019.76 1019.82 1019.88 1020.05 1020.10 1020.30 1020.51 1020.80 1021.06 1021.32 1021.61
1013.31 1013.45 1013.70 1013.95 1014.41 1014.65 1014.79 1015.10 1015.37 1015.70 1015.81 1016.11 1016.25 1016.40 1016.53 1016.81 1017.03 1017.22 1017.30 1017.41 1017.51 1017.57 1017.62 1017.80 1017.91 1018.04 1018.07 1018.45 1018.66 1018.78 1019.30 1019.54 1019.65 1019.72 1019.69 1019.85 1019.99 1020.19 1020.35 1020.64 1021.02 1021.30 1021.52
1013.13 1013.41 1013.70 1013.97 1014.28 1014.60 1014.86 1015.23 1015.45 1015.99 1016.19 1016.30 1016.40 1016.54 1016.63 1016.89 1017.11 1017.19 1017.26 1017.39 1017.47 1017.57 1017.59 1017.74 1017.77 1018.03 1018.20 1018.32 1018.68 1018.86 1019.02 1019.37 1019.51 1019.47 1019.47 1019.73 1019.89 1019.99 1020.18 1020.47 1020.92 1021.21 1021.44
1013.38 1013.58 1013.76 1014.03 1014.54 1014.75 1014.97 1015.38 1015.42 1015.93 1015.99 1016.35 1016.34 1016.30 1016.59 1016.81 1017.10 1017.18 1017.31 1017.39 1017.49 1017.62 1017.71 1017.88 1017.87 1017.89 1018.06 1018.33 1018.53 1018.71 1018.82 1019.06 1019.31 1019.26 1019.24 1019.42 1019.67 1019.82 1019.96 1020.26 1020.72 1021.05 1021.25
1013.10 1013.44 1013.82 1014.21 1014.74 1014.88 1015.07 1015.22 1015.51 1015.75 1015.97 1016.32 1016.50 1016.37 1016.29 1016.84 1017.01 1017.16 1017.21 1017.52 1017.49 1017.60 1017.76 1017.91 1017.93 1017.87 1018.00 1018.26 1018.36 1018.58 1018.67 1018.74 1018.94 1019.10 1019.15 1019.04 1019.40 1019.59 1019.77 1020.09 1020.60 1020.80 1021.06
1012.23 1013.03 1013.55 1014.07 1014.38 1014.73 1015.17 1015.12 1015.37 1015.65 1015.88 1016.10 1016.35 1016.45 1016.54 1016.67 1016.83 1016.97 1017.26 1017.36 1017.62 1017.55 1017.72 1017.89 1017.90 1017.91 1018.04 1018.12 1018.21 1018.26 1018.39 1018.45 1018.67 1018.83 1018.96 1019.03 1019.04 1019.23 1019.44 1019.64 1020.11 1020.41 1020.75
1012.13 1012.84 1013.17 1013.28 1013.56 1014.25 1014.98 1015.25 1015.52 1015.69 1015.80 1015.86 1015.97 1016.37 1016.52 1016.65 1016.92 1016.92 1017.08 1017.19 1017.28 1017.38 1017.47 1017.78 1017.87 1017.92 1018.15 1018.01 1018.14 1018.01 1018.02 1018.14 1018.33 1018.53 1018.72 1018.81 1018.86 1018.98 1019.21 1019.43 1019.79 1020.07 1020.35
1011.99 1012.42 1013.06 1013.27 1013.72 1014.13 1014.55 1015.07 1015.44 1015.74 1015.90 1015.96 1016.03 1016.04 1016.13 1016.40 1016.65 1016.78 1016.96 1017.08 1017.15 1017.33 1017.39 1017.58 1017.87 1018.00 1018.08 1018.20 1017.96 1017.82 1017.66 1017.83 1018.01 1018.13 1018.43 1018.69 1018.87 1018.90 1019.14 1019.28 1019.52 1019.66 1020.07
1012.27 1012.45 1013.18 1013.64 1014.04 1014.28 1014.46 1014.93 1015.45 1015.68 1016.02 1015.91 1015.78 1015.70 1015.63 1015.93 1016.29 1016.52 1016.71 1016.75 1017.02 1017.24 1017.42 1017.57 1017.73 1017.98 1018.02 1018.06 1017.99 1017.74 1017.67 1017.67 1017.78 1018.02 1018.19 1018.42 1018.61 1018.76 1018.86 1019.07 1019.23 1019.31 1019.73
1012.57 1014.45 1013.50 1014.59 1015.01 1015.06 1015.37 1015.32 1015.55 1015.55 1015.45 1015.73 1015.53 1015.50 1015.50 1015.64 1016.02 1016.36 1016.40 1016.46 1016.54 1016.90 1017.21 1017.43 1017.72 1017.90 1017.97 1017.96 1017.94 1017.74 1017.73 1017.59 1017.76 1017.97 1017.94 1018.13 1018.37 1018.47 1018.66 1018.97 1019.11 1019.20 1019.32
1012.52 1013.54 1014.45 1014.08 1014.51 1015.38 1015.42 1015.57 1015.30 1015.31 1015.15 1015.26 1015.22 1015.26 1015.33 1015.32 1015.40 1015.86 1016.04 1016.19 1016.30 1016.55 1016.72 1017.07 1017.49 1017.77 1017.84 1017.94 1018.10 1017.96 1017.73 1017.69 1017.68 1017.68 1017.83 1017.84 1018.01 1018.03 1018.19 1018.52 1018.73 1018.85 1018.96
1012.51 1012.90 1013.18 1013.65 1013.97 1015.22 1015.63 1015.54 1015.48 1015.05 1015.02 1015.29 1015.19 1015.18 1015.15 1015.15 1015.04 1015.22 1015.56 1015.66 1015.77 1016.20 1016.45 1016.78 1017.14 1017.43 1017.54 1017.73 1018.01 1018.04 1017.92 1017.88 1017.58 1017.43 1017.67 1017.77 1017.73 1017.59 1017.77 1018.05 1018.28 1018.39 1018.53
1011.63 1012.20 1012.93 1012.87 1013.83 1014.85 1015.40 1015.40 1015.36 1015.09 1015.08 1015.42 1015.33 1015.08 1014.97 1014.97 1014.87 1015.05 1014.75 1014.97 1015.31 1015.59 1015.89 1016.24 1016.61 1016.95 1017.21 1017.48 1017.63 1017.56 1017.96 1017.74 1017.58 1017.32 1017.39 1017.50 1017.41 1017.33 1017.38 1017.61 1017.84 1017.89 1018.00
1012.27 1012.65 1012.82 1013.54 1014.40 1014.60 1015.11 1015.00 1015.27 1015.26 1015.45 1015.48 1015.38 1015.17 1014.83 1014.49 1014.27 1014.39 1014.37 1014.42 1014.64 1015.03 1015.43 1015.68 1016.12 1016.58 1016.91 1017.18 1017.52 1017.60 1017.43 1017.46 1017.47 1017.51 1017.37 1017.24 1017.24 1017.18 1017.18 1017.20 1017.23 1017.37 1017.46
1013.23 1013.21 1013.90 1014.28 1014.89 1014.95 1014.76 1014.89 1015.02 1015.05 1015.09 1015.16 1015.00 1014.77 1014.53 1014.20 1013.65 1013.76 1013.90 1014.16 1014.35 1014.68 1014.88 1015.30 1015.81 1016.26 1016.44 1016.80 1017.12 1017.29 1017.58 1017.54 1017.39 1017.45 1017.44 1017.18 1017.04 1016.89 1016.84 1016.78 1016.82 1016.96 1017.10
1013.57 1013.67 1013.88 1014.47 1014.59 1014.23 1014.59 1015.06 1014.88 1015.10 1014.98 1015.18 1014.83 1014.59 1014.52 1013.99 1013.60 1013.66 1013.49 1013.80 1014.04 1014.31 1014.62 1014.93 1015.28 1015.72 1016.01 1016.41 1016.75 1016.85 1016.98 1017.12 1017.19 1017.27 1017.44 1017.40 1017.32 1016.78 1016.54 1016.49 1016.58 1016.45 1016.76
Wind_Speed
9 10 17 17 17 17 15 15 15 16 17 16 16 16 17 17 16 15 14 14 12 10 10 7 5 7 10 11 10 10 15 16 16 16 15 15 16 15 16 16 16 12 14
13 11 18 17 17 17 16 14 14 15 16 16 15 16 16 15 16 15 13 13 13 10 9 7 6 6 10 13 14 15 15 15 15 15 15 15 15 15 16 15 16 12 14
13 11 13 17 17 17 16 15 14 14 15 15 14 14 15 14 15 14 14 13 12 11 9 8 7 7 10 13 14 16 15 14 13 14 14 5 8 14 14 15 15 15 14
14 11 11 15 16 16 15 14 15 15 16 15 14 13 13 12 13 13 13 13 13 12 10 8 9 10 10 13 14 15 15 14 14 14 6 6 9 14 15 14 13 14 13
10 8 11 14 14 15 14 13 13 13 14 14 14 14 13 13 12 12 12 12 12 11 11 8 8 11 11 12 15 16 14 14 14 10 6 5 5 11 15 13 12 14 12
7 6 12 14 14 14 13 12 12 12 13 13 13 12 12 12 10 10 10 10 9 10 10 9 9 10 11 13 14 14 13 14 12 6 6 8 5 12 15 14 14 13 11
7 6 8 15 13 13 12 12 13 13 13 14 14 14 13 11 9 10 8 8 8 7 8 9 9 9 10 13 14 14 13 15 8 6 6 6 6 12 14 13 13 13 11
12 7 7 13 13 14 15 14 14 13 14 15 14 13 12 11 11 9 8 7 7 8 7 7 10 10 9 11 14 12 13 14 9 6 6 6 8 11 14 14 12 13 12
8 9 5 5 10 14 14 15 14 13 14 13 13 12 12 12 10 9 8 7 6 6 7 7 8 10 9 9 12 12 11 11 5 4 8 5 10 12 14 15 14 12 12
7 5 8 6 6 6 8 15 15 14 13 14 13 13 13 12 12 11 8 6 8 7 7 7 8 10 9 10 10 11 11 9 4 7 5 5 12 13 15 15 14 13 13
5 6 5 5 5 5 5 9 13 15 15 15 13 14 10 3 5 7 7 8 8 7 7 7 8 8 9 10 10 10 11 3 3 3 4 11 14 14 14 15 14 13 13
7 7 6 5 4 4 3 4 5 6 5 5 5 6 4 5 4 5 7 9 8 8 8 7 7 7 8 3 3 9 2 4 4 3 4 13 14 15 15 14 14 14 14
7 8 7 7 6 5 3 3 2 2 2 2 5 4 4 3 3 3 2 2 2 6 3 4 3 2 3 3 3 3 5 4 3 3 6 13 14 15 15 15 15 14 15
7 7 6 6 5 5 3 3 2 3 2 4 4 6 5 3 3 3 2 3 2 1 3 3 2 3 3 4 4 4 6 5 3 3 5 15 16 16 16 16 16 15 14
7 6 7 6 6 5 5 4 4 4 3 3 3 3 3 3 4 3 3 2 3 2 2 3 3 2 3 4 5 5 5 6 6 3 3 13 15 16 15 16 17 16 15
11 9 8 8 7 5 4 4 4 3 3 3 3 3 3 3 3 3 3 4 3 3 2 3 3 3 3 4 5 5 6 6 6 6 4 5 14 15 16 16 17 17 16
10 9 11 10 8 8 6 4 2 2 2 3 3 5 5 5 4 4 3 3 4 3 4 3 3 2 3 3 5 5 5 6 7 7 6 5 5 13 15 16 16 16 16
8 10 7 7 8 7 7 4 3 3 3 3 3 3 6 6 5 4 4 4 4 3 2 3 3 3 4 4 3 4 4 4 7 7 6 6 4 6 10 16 16 16 16
5 7 5 4 4 7 5 4 4 4 4 4 4 4 5 5 6 6 5 5 5 4 4 3 3 3 3 3 3 3 4 4 5 5 8 8 7 5 4 10 15 16 18
16 10 12 9 11 7 3 3 3 3 4 3 4 5 5 4 5 6 5 6 5 4 4 3 5 4 3 3 3 3 3 3 3 4 7 7 6 7 6 7 5 8 18
16 14 9 5 5 4 1 3 1 4 2 3 3 5 6 6 8 8 5 6 6 7 7 6 3 5 4 2 1 2 1 3 4 5 5 6 7 8 7 7 6 5 7
12 12 10 4 3 3 2 3 3 1 1 2 2 4 5 6 8 8 9 8 8 7 6 6 5 3 2 4 3 1 1 1 3 4 5 6 8 6 6 8 9 9 8
9 7 6 6 4 4 4 3 2 1 2 3 3 3 3 5 6 9 9 7 7 7 7 7 7 6 3 3 4 3 2 4 0 1 5 5 6 5 5 8 10 9 9
2 3 6 3 1 2 3 2 2 0 1 2 2 3 5 5 5 5 7 7 7 6 6 6 6 5 4 4 1 4 0 2 3 1 1 3 5 6 5 5 6 8 9
3 4 2 3 4 4 0 3 2 1 1 2 2 5 5 4 4 5 5 6 6 5 6 7 7 7 6 3 3 2 2 1 0 1 2 2 1 5 5 6 6 6 9
4 4 4 4 2 3 1 2 4 3 4 4 4 4 5 4 2 5 6 5 5 5 6 6 7 8 7 6 4 4 3 3 3 2 1 1 2 3 3 4 7 6 6
Wind_Direction
160 156 151 149 146 141 139 134 127 124 122 120 118 122 123 128 135 137 137 135 136 136 135 140 143 134 137 159 142 133 135 129 128 126 126 125 121 127 116 117 116 122 116
143 152 153 152 149 147 143 137 132 128 127 126 126 127 129 132 138 142 142 141 140 140 141 139 146 140 134 133 133 133 135 133 136 135 133 130 129 126 121 131 122 120 114
139 147 150 154 151 148 145 145 142 135 133 133 132 134 135 140 144 149 150 151 150 146 148 141 147 148 143 139 140 137 140 143 147 130 129 114 129 129 134 124 128 120 123
140 147 152 155 151 150 152 151 147 145 142 139 139 142 144 147 149 154 157 158 156 154 149 145 148 151 152 148 144 142 145 143 138 134 125 138 139 138 135 136 126 127 120
137 141 154 154 155 155 154 151 148 148 146 145 142 146 148 149 157 156 153 156 155 152 152 145 144 143 145 152 146 145 148 147 141 131 134 147 141 144 135 139 135 131 133
130 135 162 155 159 158 154 153 152 151 149 146 148 156 156 153 159 156 156 158 164 161 161 147 141 147 147 152 146 145 147 148 133 136 138 153 147 147 146 144 141 140 145
134 142 167 158 163 160 158 164 166 162 160 156 157 158 164 163 163 167 165 163 165 177 171 152 146 146 147 152 153 152 158 148 149 136 143 144 155 158 151 151 147 150 150
150 152 167 167 173 166 168 177 177 171 168 165 165 165 168 170 172 170 174 168 172 181 188 172 158 152 154 157 158 165 166 156 163 168 165 159 173 164 157 152 156 155 154
152 152 149 165 181 177 174 179 184 180 178 172 172 171 172 178 175 183 185 190 190 184 184 176 176 158 162 163 165 166 173 161 172 166 168 168 179 174 165 157 160 163 158
145 155 158 160 167 161 174 180 187 187 185 183 181 179 180 182 183 191 183 203 196 193 194 183 172 169 167 172 173 171 179 159 146 161 158 178 178 184 169 167 165 167 167
142 159 151 144 157 156 165 180 188 188 189 190 190 187 189 178 186 202 184 205 208 204 199 193 186 179 170 171 179 183 183 156 158 176 179 188 180 186 179 175 174 173 174
163 168 153 150 148 145 149 164 161 190 182 184 191 194 167 176 186 190 200 210 217 215 213 193 191 190 178 166 188 186 152 178 180 185 197 194 184 189 189 182 180 178 181
167 176 173 163 155 155 150 147 162 164 187 187 196 183 167 167 198 197 195 225 216 235 215 209 191 190 166 164 174 178 175 186 203 199 204 204 191 191 196 189 186 189 185
169 180 169 143 149 175 162 167 183 173 201 189 208 197 186 179 191 204 206 220 221 219 192 206 203 187 185 182 178 189 184 190 199 224 205 204 195 197 198 198 191 195 196
173 178 175 150 169 185 180 169 174 192 183 210 214 210 180 178 198 205 206 208 216 193 206 212 217 204 195 215 191 194 200 199 200 211 200 206 198 201 198 203 200 200 203
173 179 164 170 171 166 182 177 194 176 191 176 196 219 240 221 206 203 208 195 209 195 203 223 217 211 222 206 218 198 210 208 199 199 208 219 208 206 205 202 204 205 209
177 164 175 176 171 167 184 191 205 214 200 208 201 209 216 213 215 231 207 211 213 197 185 221 235 215 240 222 233 212 208 212 200 206 201 210 228 216 209 203 207 207 211
153 159 180 181 176 167 167 181 196 211 220 232 239 211 211 216 215 204 208 225 213 202 194 190 208 222 229 233 223 228 209 192 203 201 202 211 208 217 221 216 205 211 215
134 146 135 171 176 195 162 156 204 222 238 242 230 228 214 210 214 202 212 222 212 206 200 201 208 209 229 244 235 247 241 205 201 196 205 204 203 214 211 232 217 214 219
78 45 84 64 34 0 6 148 203 213 230 232 234 234 218 209 224 218 222 222 200 205 212 199 207 207 227 236 247 236 266 224 190 199 208 211 211 211 205 215 236 231 225
27 338 327 51 97 32 344 276 228 223 207 232 235 242 238 214 211 218 221 227 208 207 209 205 177 206 228 215 140 267 305 234 226 206 210 213 221 218 207 214 224 220 228
147 228 238 258 300 49 331 280 287 75 316 293 295 284 279 260 232 218 220 214 210 209 195 186 183 182 216 176 178 64 228 278 224 210 213 222 228 213 213 216 222 221 220
194 193 243 225 219 148 331 263 275 3 52 346 313 296 263 249 243 237 222 212 202 201 195 188 188 182 199 198 204 163 134 224 289 130 217 220 222 209 215 214 216 219 218
37 182 252 257 162 183 226 230 247 157 271 211 234 246 269 251 245 241 228 214 204 198 197 188 183 186 157 201 213 212 283 174 189 221 236 236 229 232 228 226 222 225 222
144 220 58 273 213 228 68 212 197 48 272 303 295 322 300 278 261 249 225 215 203 197 190 185 173 191 195 170 187 146 206 257 129 136 239 293 280 234 239 243 242 234 233
167 226 228 210 273 30 113 196 77 29 353 338 326 333 317 311 313 250 224 207 204 193 188 193 192 188 195 208 200 181 186 178 193 173 185 218 251 297 262 245 248 241 242